Date String (YYYY-MM-DD hh:mm:ss) UTC,Instrument flags,absolute air pressure of the measurement (hPa),sample flow rate (lpm),inlet stack bypass flow (lpm),air temperature of the measurement (°C),ambient temperature measured by the external sensor (°C),aerosol sample conditioner tube jacket temperature (°C),OPC LED temperature (°C),internal box temperature (°C),relative humidity of the measurement (%),span deviation,mass concentration of particles derived from Lorenz-Mie calculation of OPC scattering (μg/m³),mass concentration of particles derived from Lorenz-Mie calculation of OPC scattering (μg/m³),mass concentration of particles derived from Lorenz-Mie calculation of OPC scattering (μg/m³)
DateTimeUTC,F1_M11,P_M11,Q1_M11,Q2_M11,T1_M11,T2_M11,T3_M11,T4_M11,T5_M11,U1_M11,ZSPAN_M11,X0_M11,X2_M11,X1_M11
2023-09-18 08:00:00,SystemResetWarning,0831.3,5.00,000.00,028.5,027.4,000.0,036.7,030.2,14.4,0000.0,0004.18,0002.33,0001.97
2023-09-18 08:01:00,SystemResetWarning,0831.3,4.99,000.00,028.5,027.4,000.0,036.8,030.3,14.5,0000.0,0004.28,0002.37,0001.96
2023-09-18 08:02:00,SystemResetWarning,0831.3,5.01,000.00,028.6,027.1,000.0,036.8,030.2,14.6,0000.0,0004.39,0002.38,0001.96
2023-09-18 08:03:00,SystemResetWarning,0831.3,4.99,000.00,028.5,025.3,000.0,036.7,029.7,14.7,0000.0,0004.39,0002.36,0001.95
2023-09-18 08:04:00,SystemResetWarning,0831.2,5.01,000.00,028.4,024.6,000.0,036.6,029.6,14.8,0000.0,0004.32,0002.33,0001.94
2023-09-18 08:05:00,SystemResetWarning,0831.3,5.01,000.00,028.3,024.7,000.0,036.6,029.5,14.8,0000.0,0004.31,0002.28,0001.92
2023-09-18 08:06:00,SystemResetWarning,0831.2,5.00,000.00,028.2,024.9,000.0,036.6,029.4,14.9,0000.0,0004.31,0002.25,0001.90
2023-09-18 08:07:00,SystemResetWarning,0831.3,4.99,000.00,028.2,025.3,000.0,036.6,029.4,15.1,0000.0,0004.28,0002.23,0001.88
2023-09-18 08:08:00,SystemResetWarning,0831.2,5.01,000.00,028.1,025.6,000.0,036.6,029.5,15.1,0000.0,0004.09,0002.22,0001.86
2023-09-18 08:09:00,SystemResetWarning,0831.3,5.01,000.00,028.1,025.9,000.0,036.6,029.6,15.1,0000.0,0003.14,0002.20,0001.85
2023-09-18 08:10:00,SystemResetWarning,0831.2,4.99,000.00,028.1,026.1,000.0,036.6,029.7,15.1,0000.0,0003.15,0002.20,0001.86
2023-09-18 08:11:00,SystemResetWarning,0831.3,4.99,000.00,028.2,026.3,000.0,036.6,029.7,15.0,0000.0,0003.51,0002.18,0001.85
2023-09-18 08:12:00,SystemResetWarning,0831.2,5.01,000.00,028.2,026.5,000.0,036.6,029.8,14.8,0000.0,0003.96,0002.11,0001.84
2023-09-18 08:13:00,SystemResetWarning,0831.2,5.01,000.00,028.2,026.6,000.0,036.6,029.8,14.7,0000.0,0004.47,0002.08,0001.84
2023-09-18 08:14:00,SystemResetWarning,0831.2,5.01,000.00,028.2,026.7,000.0,036.6,029.9,14.5,0000.0,0004.96,0002.10,0001.84
2023-09-18 08:15:00,SystemResetWarning,0831.2,4.99,000.00,028.2,026.8,000.0,036.6,029.9,14.6,0000.0,0005.17,0002.15,0001.84
2023-09-18 08:16:00,SystemResetWarning,0831.2,4.99,000.00,028.3,026.9,000.0,036.6,029.9,14.6,0000.0,0005.18,0002.19,0001.86
2023-09-18 08:17:00,SystemResetWarning,0831.3,4.99,000.00,028.3,027.0,000.0,036.6,030.0,14.6,0000.0,0005.23,0002.21,0001.86
2023-09-18 08:18:00,SystemResetWarning,0831.2,5.02,000.00,028.3,027.1,000.0,036.6,030.0,14.6,0000.0,0005.22,0002.22,0001.87
2023-09-18 08:19:00,SystemResetWarning,0831.2,5.01,000.00,028.4,027.1,000.0,036.6,030.0,14.6,0000.0,0005.29,0002.25,0001.88
2023-09-18 08:20:00,SystemResetWarning,0831.2,5.00,000.00,028.4,027.2,000.0,036.6,030.1,14.7,0000.0,0005.37,0002.28,0001.88
2023-09-18 08:21:00,SystemResetWarning,0831.2,4.99,000.00,028.4,027.2,000.0,036.7,030.1,14.7,0000.0,0005.42,0002.29,0001.87
2023-09-18 08:22:00,SystemResetWarning,0831.2,5.00,000.00,028.4,027.2,000.0,036.7,030.1,14.8,0000.0,0006.15,0002.28,0001.86
2023-09-18 08:23:00,SystemResetWarning,0831.3,5.00,000.00,028.5,027.3,000.0,036.7,030.1,14.9,0000.0,0005.71,0002.30,0001.86
2023-09-18 08:24:00,SystemResetWarning,0831.3,4.99,000.00,028.5,027.3,000.0,036.7,030.2,14.8,0000.0,0005.22,0002.29,0001.86
2023-09-18 08:25:00,SystemResetWarning,0831.3,5.00,000.00,028.5,027.3,000.0,036.7,030.2,14.8,0000.0,0004.49,0002.28,0001.87
2023-09-18 08:26:00,SystemResetWarning,0831.3,5.00,000.00,028.5,027.4,000.0,036.7,030.2,14.8,0000.0,0004.34,0002.23,0001.87
2023-09-18 08:27:00,SystemResetWarning,0831.2,5.01,000.00,028.6,027.4,000.0,036.8,030.2,14.7,0000.0,0004.33,0002.21,0001.87
2023-09-18 08:28:00,SystemResetWarning,0831.3,4.99,000.00,028.6,027.4,000.0,036.8,030.3,14.7,0000.0,0004.37,0002.21,0001.88
2023-09-18 08:29:00,SystemResetWarning,0831.3,4.98,000.00,028.6,027.4,000.0,036.8,030.3,14.4,0000.0,0004.47,0002.24,0001.89
2023-09-18 08:30:00,SystemResetWarning,0831.3,5.02,000.00,028.6,027.3,000.0,036.8,030.3,14.2,0000.0,0004.54,0002.22,0001.89
2023-09-18 08:31:00,SystemResetWarning,0831.2,4.99,000.00,028.6,025.7,000.0,036.8,029.8,13.8,0000.0,0004.55,0002.23,0001.90
2023-09-18 08:32:00,SystemResetWarning,0831.2,5.00,000.00,028.4,024.5,000.0,036.7,029.6,13.8,0000.0,0004.64,0002.26,0001.90
2023-09-18 08:33:00,SystemResetWarning,0831.2,5.02,000.00,028.3,024.5,000.0,036.7,029.5,13.9,0000.0,0003.86,0002.29,0001.91
2023-09-18 08:34:00,SystemResetWarning,0831.2,5.00,000.00,028.2,024.7,000.0,036.7,029.4,13.9,0000.0,0003.74,0002.28,0001.91
2023-09-18 08:35:00,SystemResetWarning,0831.2,5.00,000.00,028.2,025.1,000.0,036.7,029.4,14.2,0000.0,0004.07,0002.30,0001.91
2023-09-18 08:36:00,SystemResetWarning,0831.2,4.99,000.00,028.1,025.4,000.0,036.7,029.5,14.5,0000.0,0004.05,0002.26,0001.90
2023-09-18 08:37:00,SystemResetWarning,0831.2,4.99,000.00,028.1,025.7,000.0,036.6,029.6,14.1,0000.0,0004.02,0002.24,0001.88
2023-09-18 08:38:00,SystemResetWarning,0831.3,5.00,000.00,028.1,026.0,000.0,036.6,029.7,13.9,0000.0,0003.97,0002.23,0001.87
2023-09-18 08:39:00,SystemResetWarning,0831.2,4.99,000.00,028.1,026.2,000.0,036.6,029.7,13.8,0000.0,0003.83,0002.21,0001.87
2023-09-18 08:40:00,SystemResetWarning,0831.2,5.00,000.00,028.2,026.4,000.0,036.6,029.8,13.9,0000.0,0003.78,0002.20,0001.88
2023-09-18 08:41:00,SystemResetWarning,0831.2,5.01,000.00,028.2,026.5,000.0,036.6,029.8,13.9,0000.0,0003.64,0002.19,0001.88
2023-09-18 08:42:00,SystemResetWarning,0831.2,5.00,000.00,028.2,026.6,000.0,036.6,029.8,13.8,0000.0,0003.59,0002.16,0001.86
2023-09-18 08:43:00,SystemResetWarning,0831.2,5.01,000.00,028.2,026.7,000.0,036.6,029.9,13.7,0000.0,0003.61,0002.16,0001.86
2023-09-18 08:44:00,SystemResetWarning,0831.2,5.00,000.00,028.2,026.8,000.0,036.6,029.9,13.7,0000.0,0003.52,0002.14,0001.88
2023-09-18 08:45:00,SystemResetWarning,0831.3,4.98,000.00,028.3,026.9,000.0,036.6,029.9,13.9,0000.0,0003.32,0002.14,0001.87
2023-09-18 08:46:00,SystemResetWarning,0831.3,5.00,000.00,028.3,027.0,000.0,036.6,030.0,14.2,0000.0,0002.99,0002.14,0001.87
2023-09-18 08:47:00,SystemResetWarning,0831.2,5.01,000.00,028.3,027.0,000.0,036.6,030.0,14.0,0000.0,0003.16,0002.17,0001.87
2023-09-18 08:48:00,SystemResetWarning,0831.2,5.00,000.00,028.3,027.1,000.0,036.6,030.0,14.1,0000.0,0003.39,0002.23,0001.90
2023-09-18 08:49:00,SystemResetWarning,0831.3,4.98,000.00,028.4,027.1,000.0,036.6,030.0,14.2,0000.0,0003.46,0002.24,0001.90
2023-09-18 08:50:00,SystemResetWarning,0831.2,5.00,000.00,028.4,027.2,000.0,036.6,030.1,14.0,0000.0,0003.88,0002.27,0001.89
2023-09-18 08:51:00,SystemResetWarning,0831.2,5.01,000.00,028.4,027.2,000.0,036.7,030.1,13.9,0000.0,0004.13,0002.30,0001.88
2023-09-18 08:52:00,SystemResetWarning,0831.2,5.00,000.00,028.4,027.2,000.0,036.7,030.1,13.8,0000.0,0004.12,0002.29,0001.87
2023-09-18 08:53:00,SystemResetWarning,0831.2,5.00,000.00,028.5,027.3,000.0,036.7,030.2,13.9,0000.0,0004.08,0002.28,0001.87
2023-09-18 08:54:00,SystemResetWarning,0831.2,4.99,000.00,028.5,027.3,000.0,036.7,030.2,13.9,0000.0,0003.98,0002.24,0001.86
2023-09-18 08:55:00,SystemResetWarning,0831.2,5.00,000.00,028.5,027.3,000.0,036.7,030.2,13.8,0000.0,0003.93,0002.23,0001.85
2023-09-18 08:56:00,SystemResetWarning,0831.2,4.99,000.00,028.5,027.4,000.0,036.8,030.2,13.6,0000.0,0004.68,0002.22,0001.85
2023-09-18 08:57:00,SystemResetWarning,0831.3,5.00,000.00,028.6,027.4,000.0,036.8,030.3,14.5,0000.0,0005.02,0002.19,0001.85
2023-09-18 08:58:00,SystemResetWarning,0831.2,5.01,000.00,028.6,027.4,000.0,036.8,030.3,14.4,0000.0,0004.84,0002.16,0001.84
2023-09-18 08:59:00,SystemResetWarning,0831.3,5.00,000.00,028.6,027.1,000.0,036.8,030.2,14.1,0000.0,0004.63,0002.11,0001.82
